Location: Joplin, MO
(37.0842°N, 94.5133°W)
Time: 22:39:41
(UTC+02:00)

Transit 2A Rocket - Pass Details

Date: 04 April 2023
Orbit: 584 x 914 km, 66.7° (Epoch: 06 June)

Event Time Altitude Azimuth Distance (km) Brightness Sun altitude
Rises 01:58:01 0° 336° (NNW) 3,549 8.8 8.0°
Reaches altitude 10° 02:00:39 10° 341° (NNW) 2,592 8.1 7.4°
Maximum altitude 02:06:35 54° 58° (ENE) 1,057 5.6 6.2°
Drops below altitude 10° 02:12:08 10° 135° (SE) 2,435 7.2 5.1°
Sets 02:14:33 0° 140° (SE) 3,318 7.9 4.7°
